{"data":{"norad_id":68632,"epoch":"2026-09-20T00:58:01.072416Z","epoch_age_seconds":102924,"freshness":"FRESH","line1":"1 68632U 26074F   26263.04029019  .00002244  00000+0  97714-4 0  9991","line2":"2 68632  60.0297 173.5262 0036348  92.6999 267.8243 15.25569623 25255","mean_motion":15.25569623,"eccentricity":0.0036348,"inclination_deg":60.0297,"raan_deg":173.5262,"arg_perigee_deg":92.6999,"mean_anomaly_deg":267.8243,"bstar":9.7714e-5,"rev_number":2525,"period_min":94.390972282751,"perigee_km":464.11455372634,"apogee_km":514.03644169972,"semimajor_km":6867.212497713,"source":"CELESTRAK","updated_at":"2026-09-20T09:00:24.365698Z"}}